Weather History for Whiting Fld NAS, FL

Change the Weather History Date:

Friday, February 15, 2013

  Actual Average Record
Temperature  
Mean Temperature 50 °F -  
Max Temperature 64 °F 63 °F 78 °F (2001)
Min Temperature 35 °F 45 °F 30 °F (2007)
Degree Days  
Heating Degree Days 16    
Moisture  
Dew Point 36 °F    
Average Humidity 63    
Maximum Humidity 89    
Minimum Humidity 28    
Precipitation  
Precipitation 0.00 in - - ()
Sea Level Pressure  
Sea Level Pressure 30.06 in    
Wind  
Wind Speed 3 mph (NW)    
Max Wind Speed 9 mph    
Max Gust Speed -    
Visibility 9 miles    
Events      
Averages and records for this station are not official NWS values.
T = Trace of Precipitation, MM = Missing Value Source: NWS Daily Summary

Daily Weather History Graph

Daily Weather History Graph

Search for Another Location

Airport:

Trip Planner

Search our weather history database for the weather conditions in past years. The results will help you decide how hot, cold, wet, or windy it might be!

Date:

Astronomy

Feb. 15, 2013 Rise Set
Actual Time 6:28 AM CST 5:36 PM CST
Civil Twilight 6:03 AM CST 6:00 PM CST
Nautical Twilight 5:35 AM CST 6:29 PM CST
Astronomical Twilight 5:07 AM CST 6:57 PM CST
Moon 9:31 AM CST (2/15) 11:08 PM CST (2/15)
Length of Visible Light 11h 56m
Length of Day
11h 07m
Waxing Crescent, 30% of the Moon is Illuminated
Feb 15
Waxing Crescent
Feb 17
First Quarter
Feb 25
Full
Mar 4
Last Quarter
Mar 11
New

Hourly Weather History & Observations

Time (CST) Temp. Windchill Dew Point Humidity Pressure Visibility Wind Dir Wind Speed Gust Speed Precip Events Conditions
12:56 AM 37.0 °F - 34.0 °F 89% 30.07 in 7.0 mi Calm Calm - 0.00 in   Clear
1:56 AM 37.0 °F - 34.0 °F 89% 30.06 in 7.0 mi Calm Calm - N/A   Clear
2:56 AM 37.0 °F - 34.0 °F 89% 30.06 in 7.0 mi Calm Calm - 0.00 in   Clear
3:56 AM 35.1 °F - 32.0 °F 89% 30.07 in 8.0 mi Calm Calm - N/A   Clear
4:56 AM 35.1 °F 32.2 °F 32.0 °F 89% 30.08 in 6.0 mi North 3.5 mph - 0.00 in   Clear
5:56 AM 35.1 °F 32.2 °F 32.0 °F 89% 30.10 in 10.0 mi North 3.5 mph - N/A   Clear
6:56 AM 39.0 °F 35.7 °F 35.1 °F 86% 30.11 in 10.0 mi North 4.6 mph - N/A   Clear
7:56 AM 46.9 °F - 39.9 °F 77% 30.13 in 10.0 mi Calm Calm - N/A   Clear
8:56 AM 52.0 °F - 39.9 °F 63% 30.13 in 10.0 mi North 4.6 mph - N/A   Clear
9:56 AM 57.9 °F - 41.0 °F 53% 30.14 in 10.0 mi Variable 4.6 mph - N/A   Clear
10:56 AM 60.1 °F - 36.0 °F 41% 30.11 in 10.0 mi Variable 3.5 mph - N/A   Clear
11:56 AM 63.0 °F - 35.1 °F 35% 30.08 in 10.0 mi Variable 3.5 mph - N/A   Clear
12:56 PM 64.0 °F - 34.0 °F 33% 30.04 in 10.0 mi Variable 3.5 mph - N/A   Partly Cloudy
1:56 PM 64.0 °F - 30.9 °F 29% 30.03 in 10.0 mi Variable 4.6 mph - N/A   Partly Cloudy
2:56 PM 64.9 °F - 30.9 °F 28% 30.01 in 10.0 mi West 6.9 mph - N/A   Partly Cloudy
3:56 PM 64.9 °F - 32.0 °F 29% 30.01 in 10.0 mi Variable 3.5 mph - N/A   Scattered Clouds
4:56 PM 61.0 °F - 36.0 °F 39% 30.01 in 10.0 mi Calm Calm - N/A   Scattered Clouds
5:56 PM 55.0 °F - 37.9 °F 53% 30.01 in 10.0 mi West 4.6 mph - N/A   Scattered Clouds
6:56 PM 52.0 °F - 39.9 °F 63% 30.02 in 10.0 mi WNW 6.9 mph - N/A   Scattered Clouds
7:56 PM 52.0 °F - 39.9 °F 63% 30.03 in 10.0 mi WSW 6.9 mph - N/A   Scattered Clouds
8:56 PM 50.0 °F - 42.1 °F 74% 30.04 in 10.0 mi West 9.2 mph - N/A   Mostly Cloudy
9:56 PM 46.9 °F - 39.9 °F 77% 30.04 in 10.0 mi WNW 5.8 mph - N/A   Mostly Cloudy
10:56 PM 48.0 °F - 39.9 °F 74% 30.04 in 10.0 mi WNW 8.1 mph - N/A   Clear
11:56 PM 48.9 °F - 39.0 °F 69% 30.04 in 10.0 mi NNW 9.2 mph - N/A   Clear